Other Public Products
Issued by NWS Grand Forks, ND

Home | Current Version | Previous Version | Graphics & Text | Print | Product List | Glossary On
Versions: 1 2 3 4 5 6 7 8 9 10 11 12 13 14 15 16 17 18 19 20 21 22 23 24 25 26 27 28 29 30 31 32 33 34 35 36 37 38 39 40 41 42 43 44 45 46 47 48 49 50
000
FPUS83 KFGF 272131
OPUFGF
PRAIRIE TO PINES WEATHER ROUNDUP
NATIONAL WEATHER SERVICE EASTERN NORTH DAKOTA/GRAND FORKS ND
300 PM CST THU NOV 27 2014

 **SATELLITE DATA USED TO AUGMENT SKY COVER AT AUTOMATED STATIONS**
 *****  WEATHER ACROSS EASTERN NORTH DAKOTA  *****

CITY           SKY/WX    TMP DP  RH WIND       PRES   REMARKS
GRAND FORKS    CLOUDY     5  -4  66 SE14      30.32F WCI -12
GRAND FORKS AF PTSUNNY    6  -3  66 S12       30.31F WCI -10
GRAND CITY NWS   N/A      5 N/A N/A SE13        N/A  WCI -12
BUXTON           N/A      4  -3  74 SE13        N/A  WCI -13
DEVILS LAKE    CLOUDY     7  -8  51 SE14      30.15F WCI -10
FARGO          PTSUNNY    7  -4  60 S13       30.34F WCI  -9
WAHPETON ARPT  PTCLDY     7  -4  61 S13       30.35F WCI  -9
$$

 *****  WEATHER ACROSS CENTRAL AND WESTERN NORTH DAKOTA  *****

CITY           SKY/WX    TMP DP  RH WIND       PRES   REMARKS
JAMESTOWN      CLOUDY     4  -5  66 S14       30.19F WCI -14
BISMARCK       LGT SNOW  12   8  84 SE14      30.06F VSB 3/4 WCI  -3
MINOT          LGT SNOW  13   8  81 SE14      30.04F VSB 1   WCI  -2
MINOT AFB      LGT SNOW  12  10  92 SE15      30.02F FOG     WCI  -4
GARRISON         N/A     12   9  87 SE15      30.00F WCI  -4
WILLISTON      CLOUDY    21  16  81 SE15G21   29.87F WCI   8
DICKINSON      CLOUDY    24  20  84 S21       29.84F WCI   9
HETTINGER      CLOUDY    23  18  81 S15G23    29.89F WCI  10
$$

 *****  OTHER OBSERVATIONS NORTHEAST NORTH DAKOTA  *****

CITY           SKY/WX    TMP DP  RH WIND       PRES   REMARKS
WALHALLA         N/A      9   0  66 S10       30.25F WCI  -6
LANGDON        FAIR       9   0  66 S15       30.17F WCI  -8
CAVALIER       FAIR       9   0  66 S10       30.28F WCI  -6
GRAFTON        FAIR       7  -2  66 S13       30.31F WCI  -9
CANDO          CLOUDY     7   1  78 SE13      30.17F WCI  -9
FORT TOTTEN      N/A      4  -5  65 S9        29.95  WCI -10
ROLLA          FAIR       7   1  78 S10       30.11F WCI  -8
RUGBY          FAIR       7   1  78 SE14      30.11F WCI -10
 ***** THE ABOVE OBSERVATIONS ARE NON NWS ARE NOT QUALITY
        CONTROLLED AND MAY MIS-REPORT RAIN FOR SNOW...
$$

 *****  OTHER OBSERVATIONS SOUTHEAST NORTH DAKOTA *****

CITY           SKY/WX    TMP DP  RH WIND       PRES   REMARKS
COOPERSTOWN    NOT AVBL
VALLEY CITY    CLOUDY     5  -2  72 S13       30.23F WCI -12
OAKES            N/A      7  -2  66 SE13      30.24F WCI  -9
GWINNER        CLOUDY     9  -2  61 SE13      30.27F WCI  -7
SHEYENNE NWR     N/A      6  -5  61 S8        29.95S WCI  -7
BUFFALO        NOT AVBL
WYNDMERE         N/A      7  -2  66 SE9         N/A  WCI  -7
 ***** THE ABOVE OBSERVATIONS ARE NON NWS ARE NOT QUALITY
       CONTROLLED AND MAY MIS-REPORT RAIN FOR SNOW...
$$

  *****  WEATHER ACROSS NORTHERN MINNESOTA  *****

CITY           SKY/WX    TMP DP  RH WIND       PRES   REMARKS
FLAG ISLAND    CLEAR      0  -6  78 S8        30.31F WCI -15
WARROAD        SUNNY      3  -6  66 CALM      30.32F
ROSEAU         MOSUNNY    5  -4  66 S10       30.32F WCI -10
HALLOCK          N/A      5  -2  72 S14       30.31F WCI -12
THF RVR FALLS  PTSUNNY    1  -2  85 SE6       30.31F WCI -10
HALSTAD          N/A      6  -4  64 S10         N/A  WCI  -9
FOSSTON        MOSUNNY    3  -6  66 CALM      30.31F
BAUDETTE       SUNNY      4  -6  63 S6        30.31F WCI  -7
WASKISH        SUNNY      1  -8  66 CALM      30.33F
CROOKSTON      PTSUNNY    3  -4  72 S10       30.34F WCI -12
$$
  *****  WEATHER ACROSS CENTRAL AND WEST MINNESOTA  *****

CITY           SKY/WX    TMP DP  RH WIND       PRES   REMARKS
BEMIDJI        FAIR       4  -7  62 CALM      30.30F
PARK RAPIDS    SUNNY      7  -5  57 SE6       30.31F WCI  -3
WADENA         SUNNY      9  -2  61 SE6       30.32F WCI  -1
DETROIT LAKES  SUNNY      9   0  66 S9        30.30F WCI  -5
MOORHEAD       MOSUNNY    9   1  72 S10       30.34F WCI  -6
FERGUS FALLS   SUNNY      7  -4  61 S12       30.38F WCI  -9
ELBOW LAKE     MOCLDY     4  -5  66 S8        30.34F HAZE    WCI -10
MORRIS MN      MOSUNNY    3  -4  72 S12       30.36R WCI -13
STAPLES        SUNNY      7  -8  51 S6        30.34S WCI  -3
WHEATON        SUNNY      3  -4  72 SE14      30.36F WCI -15
$$
  *****  WEATHER ELSEWHERE ACROSS MINNESOTA  *****

CITY           SKY/WX    TMP DP  RH WIND       PRES   REMARKS
DULUTH         SUNNY      8  -7  50 W7        30.32F WCI  -3
INTRNTL FALLS  CLEAR      3  -7  63 SW6       30.33F WCI  -8
ELY            CLEAR      3  -8  60 SW5       30.32S WCI  -6
CLOQUET        SUNNY      9  -9  43 CALM      30.34F
BRAINERD       SUNNY      6  -7  54 S5        30.36F WCI  -3
HIBBING        SUNNY      7  -9  48 NW5       30.33F WCI  -2
ALEXANDRIA     SUNNY      7  -3  64 S9        30.33F WCI  -7
SAINT CLOUD    FAIR       7  -6  55 SW6       30.40F WCI  -3
MINNEAPOLIS    MOSUNNY    9  -5  53 CALM      30.44F
$$

  *****  WEATHER ACROSS SOUTH DAKOTA  *****

CITY           SKY/WX    TMP DP  RH WIND       PRES   REMARKS
SIOUX FALLS    CLOUDY    11   0  61 SE13      30.29F WCI  -4
BROOKINGS      NOT AVBL
WATERTOWN      CLOUDY     9  -1  64 S14       30.24F WCI  -7
HURON          CLOUDY    14   3  61 SE14G22   30.24F WCI  -1
SISSETON         N/A      5  -4  66 SE13      30.31F WCI -12
ABERDEEN       FLURRIES  12   2  64 SE14      30.23F WCI  -3
MITCHELL       PTSUNNY   15   6  67 SE16      30.24F WCI  -1
PIERRE         CLOUDY    24  14  65 SE20      30.06F WCI  10
MOBRIDGE       CLOUDY    18  10  71 S21G29    30.05F WCI   1
RAPID CITY     PTSUNNY   34  27  75 S8        29.91F
$$

  *****  SOME WEATHER IN NEARBY STATES *****

CITY           SKY/WX    TMP DP  RH WIND       PRES   REMARKS
GLASGOW MT     MOSUNNY   33  29  85 E13       29.74F WCI  24
GREAT FALLS MT FAIR      57  34  41 SW37G47   29.73F
CHEYENNE WY    PTSUNNY   56  22  26 W21G31    30.10F
SCOTTSBLUFF NE MOSUNNY   39  31  72 SE3       30.00F
OMAHA NE       PTSUNNY   22   6  50 SE12      30.39F WCI  10
DES MOINES IA  PTSUNNY   13  -2  51 CALM      30.45F
DAVENPORT IA   SUNNY     17   6  62 W16       30.43R WCI   2
CHICAGO IL     FLURRIES  23  15  71 NW10      30.36R WCI  12
EAU CLAIRE WI  SUNNY      9  -4  55 W7        30.42S WCI  -2
LA CROSSE WI   SUNNY     14   0  53 NW8       30.45R WCI   3
$$

  *****  SOME NATIONAL WEATHER *****

CITY           SKY/WX    TMP DP  RH WIND       PRES   REMARKS
LA GUARDIA NY  CLOUDY    37  32  82 N8        29.99R
RALEIGH NC     LGT RAIN  45  36  70 NW9G18    30.10R
ATLANTA GA     CLOUDY    44  25  47 NW17      30.29R
NEW ORLEANS LA MOSUNNY   61  32  33 N12       30.38S
OKLAHOMA CITY  MOSUNNY   51  19  28 S8        30.39F
ALBUQUERQUE NM MOSUNNY   58  23  26 CALM      30.36F
SALT LAKE CITY PTSUNNY   57  28  33 SE5       30.22F
LOS ANGELES CA PTSUNNY   77  38  24 W12       30.03F
BOISE ID       FAIR      53  44  71 E12       30.09F
SEATTLE WA     PTSUNNY   56  51  84 S21G28    29.81S
$$

*** WEATHER ACROSS MANITOBA...SASKATCHEWAN AND ONTARIO ***
                ***ONTARIO***

CITY           SKY/WX    TMP DP  RH WIND       PRES   REMARKS
GERALDTON      PTCLDY    -2 -13  60 NW5       30.28R WCI -12
THUNDER BAY    PTCLDY     7  -6  56 W8        30.38S WCI  -6
SIOUX LOOKOUT  PTCLDY     0 -11  60 SW5       30.29F WCI -10
TORONTO        MOCLDY    34  23  64 N13       30.06R WCI  25
BIG TROUT LK   CLEAR     -4  -9  77 SW10      30.16F WCI -21
PICKLE LAKE    PTCLDY    -2 -11  65 SW7       30.23F WCI -16
DRYDEN         CLEAR      0  -8  71 SW9       30.28F WCI -16
KENORA         MOCLDY    -2  -9  71 S9        30.29F WCI -18
$$
                *** MANITOBA***

CITY           SKY/WX    TMP DP  RH WIND       PRES   REMARKS
BRANDON        CLOUDY     7   1  78 E6        30.15F WCI  -3
DAUPHIN        CLOUDY     7   0  72 SE7       30.16F WCI  -5
ISLAND LAKE    MOCLDY    -2 -11  65 SW8       30.18F WCI -17
PILOT MOUND      N/A      9   1  72 S14         N/A  WCI  -8
THE PAS        LGT SNOW   1  -4  78 NW5       30.18S WCI  -8
THOMPSON       PTCLDY     0  -9  65 W6        30.16R WCI -12
WINNIPEG       CLOUDY     3  -4  72 S16       30.30F WCI -16
LYNN LAKE      CLEAR     -6 -13  71 NW9       30.16R WCI -22
CHURCHILL      CRYSTALS  -9 -17  70 NW18G25   30.06S WCI -33
GILLAM         PTCLDY    -4 -11  71 W8        30.12R WCI -19
$$
                ***SASKATCHEWAN***

CITY           SKY/WX    TMP DP  RH WIND       PRES   REMARKS
ESTEVAN        LGT SNOW  10   9  92 E16       29.96F FOG     WCI  -7
KINDERSLEY     CLOUDY    16  12  86 E24G30    29.83F WCI  -3
LLOYDMINSTER   NOT AVBL
PRINCE ALBERT  FLURRIES  10   5  79 NE12      30.12S WCI  -4
REGINA         CLOUDY    16  12  86 E13       29.96F VSB 3/4 WCI   2



USA.gov is the U.S. government's official web portal to all federal, state and local government web resources and services.